TimeCDT,TemperatureF,Dew PointF,Humidity,Sea Level PressureIn,VisibilityMPH,Wind Direction,Wind SpeedMPH,Gust SpeedMPH,PrecipitationIn,Events,Conditions,WindDirDegrees,DateUTC
12:15 AM,48.4,41.9,78,30.14,10.0,NW,15.0,19.6,N/A,,Overcast,310,2013-04-24 05:15:00
12:35 AM,47.8,41.7,79,30.15,10.0,NNW,15.0,25.3,N/A,,Overcast,330,2013-04-24 05:35:00
12:55 AM,46.8,42.3,84,30.16,7.0,NW,16.1,26.5,N/A,,Overcast,320,2013-04-24 05:55:00
1:15 AM,45.7,42.6,89,30.16,7.0,NW,18.4,24.2,N/A,,Overcast,320,2013-04-24 06:15:00
1:35 AM,45.7,42.1,87,30.17,10.0,NW,17.3,24.2,N/A,,Overcast,320,2013-04-24 06:35:00
1:55 AM,45.5,41.4,85,30.17,10.0,NW,13.8,24.2,N/A,,Overcast,310,2013-04-24 06:55:00
2:15 AM,44.1,41.0,89,30.17,7.0,NW,18.4,25.3,N/A,,Overcast,320,2013-04-24 07:15:00
2:35 AM,43.7,41.0,90,30.17,10.0,NW,16.1,23.0,N/A,,Overcast,320,2013-04-24 07:35:00
2:55 AM,43.2,40.5,90,30.18,7.0,NW,17.3,24.2,0.02,Rain,Light Rain,320,2013-04-24 07:55:00
3:15 AM,43.2,41.0,92,30.18,10.0,NW,11.5,18.4,0.01,Rain,Light Rain,320,2013-04-24 08:15:00
3:35 AM,43.2,40.5,90,30.19,10.0,NW,18.4,24.2,0.01,,Overcast,320,2013-04-24 08:35:00
3:55 AM,43.0,40.1,90,30.20,10.0,NW,16.1,-,0.01,,Overcast,310,2013-04-24 08:55:00
4:15 AM,42.8,39.4,88,30.19,10.0,NNW,13.8,-,N/A,,Light Drizzle,330,2013-04-24 09:15:00
4:35 AM,42.4,38.8,87,30.21,10.0,NNW,12.7,21.9,N/A,,Overcast,330,2013-04-24 09:35:00
4:55 AM,42.8,39.2,87,30.22,10.0,NW,13.8,-,N/A,,Overcast,320,2013-04-24 09:55:00
5:15 AM,43.0,39.2,86,30.22,10.0,NW,11.5,19.6,N/A,,Overcast,320,2013-04-24 10:15:00
5:35 AM,43.0,39.2,86,30.22,10.0,NNW,20.7,26.5,N/A,,Overcast,330,2013-04-24 10:35:00
5:55 AM,43.0,38.3,84,30.23,10.0,NW,17.3,21.9,N/A,,Overcast,320,2013-04-24 10:55:00
6:15 AM,43.0,38.3,84,30.23,10.0,NNW,15.0,21.9,N/A,,Overcast,330,2013-04-24 11:15:00
6:35 AM,43.0,37.4,81,30.23,10.0,NNW,17.3,23.0,N/A,,Overcast,330,2013-04-24 11:35:00
6:55 AM,43.0,37.8,82,30.24,10.0,NW,15.0,18.4,N/A,,Overcast,320,2013-04-24 11:55:00
7:15 AM,43.2,37.4,80,30.24,10.0,NNW,13.8,21.9,N/A,,Overcast,330,2013-04-24 12:15:00
7:35 AM,42.8,36.9,80,30.26,10.0,NNW,17.3,26.5,N/A,,Overcast,330,2013-04-24 12:35:00
7:55 AM,42.8,36.5,78,30.27,10.0,NW,20.7,25.3,N/A,,Overcast,320,2013-04-24 12:55:00
8:15 AM,43.0,36.7,78,30.27,10.0,NNW,17.3,21.9,0.01,,Overcast,330,2013-04-24 13:15:00
8:35 AM,43.3,36.0,75,30.28,10.0,NNW,19.6,25.3,0.01,,Overcast,330,2013-04-24 13:35:00
8:55 AM,43.7,35.8,74,30.28,10.0,NNW,21.9,27.6,0.01,,Overcast,330,2013-04-24 13:55:00
9:15 AM,43.9,36.1,74,30.29,10.0,NNW,17.3,25.3,N/A,,Overcast,330,2013-04-24 14:15:00
9:35 AM,45.3,36.9,72,30.28,10.0,NNW,18.4,24.2,N/A,,Mostly Cloudy,340,2013-04-24 14:35:00
9:55 AM,46.4,37.8,72,30.27,10.0,North,17.3,21.9,N/A,,Scattered Clouds,350,2013-04-24 14:55:00
10:15 AM,48.2,38.1,68,30.27,10.0,NNW,16.1,25.3,N/A,,Clear,340,2013-04-24 15:15:00
10:35 AM,49.1,38.7,67,30.27,10.0,North,15.0,21.9,N/A,,Clear,360,2013-04-24 15:35:00
10:55 AM,50.7,39.2,65,30.26,10.0,NNW,19.6,24.2,N/A,,Clear,340,2013-04-24 15:55:00
11:15 AM,52.0,39.9,63,30.27,10.0,NNW,11.5,18.4,N/A,,Clear,340,2013-04-24 16:15:00
11:35 AM,53.4,40.1,61,30.27,10.0,NNW,12.7,-,N/A,,Clear,340,2013-04-24 16:35:00
11:55 AM,54.9,39.9,57,30.27,10.0,North,11.5,20.7,N/A,,Clear,360,2013-04-24 16:55:00
12:15 PM,55.2,40.5,58,30.26,10.0,NNW,11.5,18.4,N/A,,Clear,340,2013-04-24 17:15:00
12:35 PM,56.5,40.5,55,30.26,10.0,North,10.4,23.0,N/A,,Clear,350,2013-04-24 17:35:00
12:55 PM,57.7,40.8,53,30.24,10.0,North,12.7,20.7,N/A,,Clear,360,2013-04-24 17:55:00
1:15 PM,58.6,41.4,53,30.24,10.0,North,12.7,27.6,N/A,,Clear,360,2013-04-24 18:15:00
1:35 PM,59.4,41.7,52,30.23,7.0,NNW,16.1,19.6,N/A,,Clear,340,2013-04-24 18:35:00
1:55 PM,60.1,40.8,49,30.23,10.0,North,12.7,20.7,N/A,,Clear,10,2013-04-24 18:55:00
2:15 PM,60.6,40.8,48,30.22,10.0,NNW,15.0,21.9,N/A,,Clear,340,2013-04-24 19:15:00
2:35 PM,61.5,41.4,48,30.21,10.0,North,11.5,16.1,N/A,,Clear,350,2013-04-24 19:35:00
2:55 PM,61.9,40.6,46,30.21,10.0,North,10.4,20.7,N/A,,Clear,10,2013-04-24 19:55:00
3:15 PM,62.8,41.9,46,30.21,10.0,NNE,8.1,17.3,N/A,,Clear,20,2013-04-24 20:15:00
3:35 PM,63.0,40.1,43,30.20,10.0,NNW,11.5,18.4,N/A,,Clear,340,2013-04-24 20:35:00
3:55 PM,63.1,40.3,43,30.19,10.0,North,9.2,20.7,N/A,,Clear,360,2013-04-24 20:55:00
4:15 PM,64.0,40.6,42,30.19,10.0,North,10.4,-,N/A,,Clear,10,2013-04-24 21:15:00
4:35 PM,63.7,39.0,40,30.18,10.0,North,10.4,16.1,N/A,,Clear,10,2013-04-24 21:35:00
4:55 PM,64.2,39.2,40,30.18,10.0,North,12.7,17.3,N/A,,Clear,10,2013-04-24 21:55:00
5:15 PM,64.4,39.6,40,30.17,10.0,North,9.2,-,N/A,,Clear,350,2013-04-24 22:15:00
5:35 PM,63.0,38.8,41,30.18,10.0,NNE,3.5,-,N/A,,Clear,20,2013-04-24 22:35:00
5:55 PM,62.8,39.6,42,30.19,10.0,North,5.8,-,N/A,,Mostly Cloudy,10,2013-04-24 22:55:00
6:15 PM,62.6,40.8,45,30.19,10.0,North,8.1,-,N/A,,Overcast,350,2013-04-24 23:15:00
6:35 PM,62.1,40.5,45,30.19,10.0,North,8.1,-,N/A,,Overcast,360,2013-04-24 23:35:00
6:55 PM,61.7,40.8,46,30.19,10.0,North,6.9,-,N/A,,Overcast,350,2013-04-24 23:55:00
7:15 PM,61.0,41.2,48,30.20,10.0,NNW,8.1,-,N/A,,Overcast,340,2013-04-25 00:15:00
7:35 PM,60.3,42.3,51,30.20,10.0,NNW,6.9,-,N/A,,Overcast,340,2013-04-25 00:35:00
7:55 PM,59.5,42.6,54,30.21,10.0,North,6.9,-,N/A,,Overcast,350,2013-04-25 00:55:00
8:15 PM,59.5,43.0,54,30.21,10.0,North,6.9,-,N/A,,Overcast,350,2013-04-25 01:15:00
8:35 PM,58.6,43.0,56,30.22,10.0,North,8.1,-,N/A,Rain,Light Rain,350,2013-04-25 01:35:00
8:55 PM,58.1,42.3,56,30.22,10.0,NNW,8.1,-,N/A,,Mostly Cloudy,340,2013-04-25 01:55:00
10:15 PM,54.0,43.5,68,30.25,10.0,NNW,5.8,-,N/A,,Scattered Clouds,340,2013-04-25 03:15:00
10:35 PM,53.8,43.9,69,30.25,10.0,NNW,5.8,-,N/A,,Scattered Clouds,340,2013-04-25 03:35:00
10:55 PM,53.2,43.7,70,30.26,10.0,NNW,5.8,-,N/A,,Scattered Clouds,340,2013-04-25 03:55:00
11:15 PM,52.9,43.7,71,30.27,10.0,NW,3.5,-,N/A,,Clear,320,2013-04-25 04:15:00
11:35 PM,52.7,44.1,72,30.27,10.0,NNW,4.6,-,N/A,,Scattered Clouds,340,2013-04-25 04:35:00
11:55 PM,54.0,43.9,69,30.27,10.0,North,4.6,-,N/A,,Overcast,350,2013-04-25 04:55:00